Tracking 19176 objects as of 27-May-2018
HD Live streaming from Space Station
objects crossing your sky now

COSMOS 807

Track COSMOS 807 now!
10-day predictions
COSMOS 807 is classified as:


NORAD ID: 8744
Int'l Code: 1976-022A
Perigee: 377.5 km
Apogee: 1,203.8 km
Inclination: 82.9 °
Period: 100.5 minutes
Semi major axis: 7161 km
RCS: 2.9772 m2 (large)
Launch date: March 12, 1976
Source: Commonwealth of Independent States (former USSR) (CIS)
Launch site: PLESETSK MISSILE AND SPACE COMPLEX (PKMTR)
aabbcc
Your satellite tracking list
Your tracking list is empty




NASA's NSSDC Master Catalog

Two Line Element Set (TLE):
1  8744U 76022A   18147.29360929 +.00001222 +00000-0 +59824-4 0  9990
2  8744 082.9307 252.7630 0576944 107.0735 314.0842 14.32466513125709
Source of the keplerian elements: AFSPC